FREGAT R/B, 40891

Orbit data source: Space-Track

FREGAT R/B, 40891 is space debris originally from a launch on Fri, 11 Sep 2015 UTC launched from the French Guiana (FRGUI). Debris objects in space refer to the collection of defunct objects orbiting the Earth. Examples of debris include non-operational satellites, rocket bodies, and fragments generated from explosions, collisions, or faulty payload assembly.

Loading next visibility...
Identifier
40891, 2015-045C
Orbit
Active
Country
Flag of CISCIS
Related business
Manufacturer
Lavochkin
Mission
Spacecraft
Bus & Motor
FREGAT, Unknown motor
Mass
1,050 kg wet, 1,050 kg dry
Launch date (UTC)
2015-09-11 (11 years ago)
Launch vehicle
Unknown
Launch site
French Guiana (FRGUI)
Object type
Payload
Rocket body
Debris
Shape & HBR
Irr, 1.6 m
Radar Cross Section
11.055 m²

Expand to show TLE details & history
Last TLE update: 23 hours ago

TLE from 23 hours ago
0 FREGAT R/B
1 40891U 15045C   26127.25797008  .00000004  00000-0  00000-0 0  9997
2 40891  54.8135 225.9784 0027427 231.8149 127.9735  1.67827849 65318
Epoch: 2026-05-07T06:11Z
TLE epoch observation values (Epoch: 2026-05-07T06:11:28.614Z)
Latitude
0.00008°
Longitude
-92.00378°
Altitude
23,583.402 km
Speed
3.644 km/s
True Right ascension
15h 03m 53s
True Declination
0° 00' 00"
Sunlit
Object was in daylight at epoch
Visualization orbit readout
Latitude
Unknown
Longitude
Unknown
Altitude
Unknown
Speed
Unknown
Apparent Right ascension
Unknown
Apparent Declination
Unknown
Sunlit
N/A
Visualization observer readout
Local Sidereal Time
13:27:43
Azimuth
Unknown
Elevation
Unknown
Doppler factor
Unknown
Orbital elements
Apogee altitude
23,614.563 km
Perigee altitude
23,450.491 km
Semi-major axis
29,910.664 km
Eccentricity
0.00274
Inclination
54.8135°
RAAN
225.9784°
Arg. of periapsis
231.8149°
True anomaly
128.22073°
Mean anomaly
127.9735°
Eccentric anomaly
128.09717°
Mean motion
0.41957 °/min
Orbital period
858.02 mins
BSTAR
0
Loading maneuver chart data...
Computing Atmospheric mass density...
Loading historical data...
Loading historical data...
Loading historical data...
Loading historical data...
Loading historical data...
Loading historical data...
Loading historical data...
Other satellites on launch #45 in the year 2015 (2015-09-11 UTC)

Documentation

Showing up to 5 results
|